GFSSGP_sfc_thetae_333.txt.gz
Theta_e
327 322 326 322 306 304 300 302 309 308 310 313 314 313 312 311 308 306 318 318 324 323 325 327 332 335 337 338 335 334 332 333 331 329 328 329 329 329 328 327 326 326 325 325 324 323 322 321 320
319 320 322 315 299 297 298 305 305 308 311 313 311 311 311 308 311 312 314 320 322 321 324 327 333 335 337 335 334 333 332 332 329 328 328 329 328 328 327 326 325 325 324 323 323 322 321 320 320
319 319 312 306 301 295 298 305 309 310 311 311 309 309 308 308 312 313 318 320 323 324 326 329 333 335 335 334 334 332 331 330 327 328 326 326 326 327 325 325 324 323 323 322 321 321 319 319 319
317 317 313 303 300 303 304 309 313 309 309 310 309 305 307 310 314 317 319 321 322 324 326 330 332 334 334 333 332 331 329 329 326 326 326 325 325 325 324 323 323 322 321 321 320 319 318 318 318
317 313 302 300 302 307 310 312 314 309 310 310 308 305 304 310 315 318 319 320 321 322 324 328 330 331 332 332 330 329 328 327 325 324 324 324 323 323 322 322 321 320 319 319 319 318 317 316 316
308 310 300 298 300 307 308 312 313 312 311 309 308 306 305 312 315 317 318 320 321 321 323 324 324 326 330 331 329 327 326 325 324 323 322 322 322 322 321 320 318 318 317 317 317 316 315 314 314
305 304 300 301 302 304 308 312 309 310 309 308 310 306 306 309 316 317 318 319 320 321 321 323 323 323 325 328 328 328 326 324 323 322 321 320 320 320 319 317 316 315 315 315 314 314 313 312 311
311 307 301 304 303 304 310 311 313 312 308 309 310 306 305 309 316 316 316 317 318 319 319 320 321 324 327 325 324 324 324 322 320 319 317 318 317 317 317 317 315 314 312 312 312 311 310 308 307
314 302 299 303 304 307 312 310 311 310 308 308 308 307 308 313 315 314 313 314 314 315 317 319 319 322 326 323 320 320 320 318 317 315 313 312 315 314 315 315 313 312 311 309 308 306 303 302 301
307 302 302 309 310 308 310 311 309 307 307 306 305 306 311 313 312 310 309 309 311 313 315 317 318 320 318 319 320 320 318 316 315 314 314 313 313 312 311 310 310 308 305 304 302 299 296 299 297
306 302 307 308 310 311 309 309 309 308 306 310 307 305 310 311 311 309 309 310 310 312 313 315 317 319 316 317 319 319 318 316 315 314 313 312 311 310 310 308 306 304 303 297 297 297 297 297 296
302 306 307 308 309 309 308 310 305 306 308 310 310 309 310 309 309 309 309 309 309 310 312 313 315 317 317 318 316 318 316 315 314 313 312 311 310 309 307 305 304 302 298 298 298 297 297 296 295
302 305 306 308 308 309 311 308 308 308 309 308 309 309 309 309 310 311 311 310 309 306 306 308 310 313 317 317 316 317 316 313 310 310 310 309 308 307 306 303 301 299 298 298 297 297 296 296 295
304 305 306 307 308 308 306 308 307 310 310 307 307 308 310 309 310 310 309 309 308 307 306 304 302 305 310 317 317 316 315 313 308 308 308 307 306 305 304 302 299 298 298 298 298 297 297 296 296
305 301 304 306 307 307 308 304 304 310 309 308 307 308 308 309 310 309 310 309 309 308 307 303 302 302 305 312 316 315 314 313 308 305 306 305 303 302 301 300 299 298 298 298 298 297 297 297 296
300 301 296 302 306 305 305 301 309 310 308 307 308 308 306 308 309 310 310 309 310 308 306 304 301 303 305 310 313 314 313 311 311 308 305 305 304 303 301 300 299 299 298 298 298 298 297 297 296
298 292 295 298 305 304 303 302 306 308 307 308 308 308 306 306 308 310 309 309 310 309 306 303 301 303 305 310 311 312 312 311 311 311 307 306 304 303 302 302 301 300 299 298 298 298 297 297 296
292 292 295 296 301 302 301 302 304 304 306 307 308 308 308 306 306 308 309 309 309 309 307 304 301 301 305 309 310 310 310 311 311 310 309 308 306 304 303 302 302 300 299 299 299 298 298 297 297
296 295 294 298 298 300 300 301 304 307 304 305 307 309 308 308 310 308 308 309 308 309 307 305 302 300 304 306 306 306 306 308 309 310 309 308 307 305 303 303 302 301 300 299 300 300 299 298 298
296 295 294 295 296 296 298 298 302 305 306 307 308 308 309 310 310 309 308 308 307 307 307 306 303 301 301 305 306 305 306 307 308 309 309 308 307 306 304 303 303 302 301 300 300 300 298 299 300
295 293 294 293 294 295 294 294 297 301 304 306 308 310 310 309 309 309 308 307 308 307 307 307 306 303 301 302 303 304 302 304 304 305 306 307 307 306 305 304 303 303 302 300 301 300 299 298 300
291 298 296 293 292 288 292 286 295 298 299 301 304 305 307 309 311 311 309 308 308 308 310 308 307 305 303 302 300 299 298 297 299 303 304 305 306 306 306 305 304 304 302 301 301 301 300 299 297
292 298 295 293 292 290 290 287 292 295 294 297 299 301 303 305 308 308 310 310 310 311 310 309 308 307 304 302 301 299 298 300 302 301 302 303 305 305 306 306 305 304 303 302 301 301 300 300 298
296 294 293 293 291 284 289 289 290 294 294 295 297 298 299 300 300 301 307 311 311 312 312 310 308 306 306 302 301 300 300 300 300 300 299 301 302 303 304 305 305 305 304 303 302 302 301 299 299
295 291 284 283 284 282 286 286 290 294 295 294 295 296 297 298 299 300 300 301 308 310 310 309 308 306 305 303 302 301 301 301 301 300 299 299 300 300 301 302 303 304 304 304 303 302 301 300 298
292 291 285 278 280 282 283 282 289 292 294 294 295 296 298 298 299 300 300 301 302 306 309 308 307 306 305 304 302 302 302 302 302 301 301 300 300 300 301 301 301 302 303 303 303 302 301 300 299
291 288 293 284 280 281 284 288 291 292 293 294 294 296 297 298 299 300 301 301 302 303 305 307 306 306 305 303 303 303 302 301 301 302 302 301 301 300 300 300 300 300 300 300 301 300 300 299 299
291 293 284 285 279 278 282 284 287 289 290 292 294 295 296 297 298 300 300 301 301 303 304 304 305 304 305 304 303 303 303 302 302 301 300 300 300 300 298 298 298 298 298 298 298 298 299 298 298
287 287 288 288 285 281 280 284 292 292 292 293 294 296 297 297 297 297 299 301 301 302 302 302 302 302 303 303 302 302 302 302 301 300 300 300 299 299 298 297 296 296 296 296 296 296 297 296 296
291 290 289 284 280 283 283 285 290 295 294 295 294 295 296 297 297 297 297 299 301 301 301 301 301 300 301 301 300 300 301 300 299 299 299 300 299 299 298 297 296 295 295 295 294 294 294 294 294

GFSSGP_sfc_thetae_336.txt.gz
Theta_e
327 319 321 320 304 301 296 298 305 306 307 310 312 310 307 306 305 301 313 317 323 323 325 330 335 336 338 336 335 334 333 331 330 330 331 331 328 327 327 326 326 325 325 325 324 323 322 322 322
317 317 316 314 298 293 296 301 302 305 309 311 311 311 309 303 311 310 310 320 321 322 325 328 335 338 337 335 334 333 331 329 330 331 330 328 330 327 327 326 325 324 324 324 323 322 321 321 321
318 317 309 304 299 294 295 301 304 308 310 310 306 308 307 304 310 310 315 318 318 318 327 331 336 337 335 335 333 332 330 329 329 329 328 329 327 325 325 325 324 323 323 323 322 321 320 320 320
313 312 310 299 297 300 301 305 307 306 307 309 308 300 304 310 311 313 317 319 319 321 327 332 335 336 335 333 332 331 329 328 328 328 327 327 324 324 324 323 322 322 322 321 321 320 319 319 318
312 309 299 296 296 302 307 309 310 306 306 306 305 299 301 309 314 315 316 319 318 321 326 329 333 335 334 332 331 329 328 326 327 325 324 325 323 323 322 322 321 320 320 320 319 318 317 317 317
305 306 296 294 297 302 306 309 310 308 309 305 304 302 302 309 313 314 316 316 318 320 324 325 325 331 332 331 330 328 327 326 325 324 324 324 322 322 321 320 319 319 318 318 317 316 315 315 314
303 300 296 298 300 302 306 309 307 307 306 305 307 301 302 307 313 314 314 315 316 319 320 320 321 326 328 329 328 328 326 325 324 323 322 322 320 320 319 317 317 316 316 316 315 314 312 312 311
307 302 297 298 299 302 307 308 310 308 304 307 306 300 297 307 313 313 313 314 314 315 316 317 319 322 324 323 325 325 325 323 322 320 319 319 319 318 317 317 315 314 314 313 312 310 309 307 306
310 299 296 298 300 305 309 307 309 308 305 304 305 303 306 312 312 310 309 310 311 313 313 315 317 321 321 320 319 321 321 320 319 315 316 316 311 312 311 315 313 312 311 310 308 304 303 303 302
302 297 298 305 307 305 308 308 307 304 304 302 301 303 309 311 309 307 307 306 307 308 311 313 315 318 319 319 318 317 315 312 312 310 309 309 306 308 307 309 310 307 305 305 302 299 298 298 291
302 297 303 306 309 310 308 307 307 304 302 304 301 303 307 308 307 307 306 307 307 309 310 312 314 316 315 316 317 316 314 310 310 308 308 307 305 305 305 301 300 297 301 293 294 293 292 291 291
297 302 304 307 308 308 307 307 303 304 302 306 308 306 307 307 306 306 306 306 307 308 308 310 314 314 313 314 314 315 311 310 308 308 307 305 304 302 301 300 298 294 292 291 291 291 291 290 291
298 300 304 305 306 307 309 306 304 303 303 305 307 307 307 307 307 307 307 306 306 306 307 308 310 313 316 315 312 314 311 308 306 307 306 305 303 301 299 297 296 292 292 292 291 291 291 291 291
300 301 302 304 306 307 305 305 306 306 304 303 305 306 307 307 307 306 305 304 304 304 305 306 306 309 314 315 313 313 309 307 303 303 304 304 302 300 298 296 293 292 292 292 292 291 291 290 291
301 296 300 302 304 305 305 302 301 305 305 303 303 304 307 307 307 306 305 305 304 303 302 300 299 302 306 311 312 311 308 307 301 301 303 302 300 298 297 295 292 292 292 292 292 291 292 291 292
297 297 292 299 303 304 302 297 305 307 304 302 302 302 304 306 307 306 306 305 305 303 302 299 299 297 299 304 310 310 308 306 303 299 300 300 299 298 295 294 293 293 293 292 292 291 291 291 290
295 287 291 295 303 301 300 298 302 305 303 303 302 302 302 303 305 306 306 305 305 304 302 298 296 296 298 301 307 308 307 305 305 303 299 299 300 299 296 295 294 294 293 292 293 292 291 290 290
288 289 291 291 299 300 297 297 301 302 302 302 303 302 301 301 303 305 305 305 305 304 302 298 296 298 299 303 304 305 305 304 304 304 302 301 300 299 297 297 296 295 293 293 293 292 292 291 291
293 292 291 294 297 298 297 297 300 300 300 300 302 301 302 302 303 305 305 304 303 303 301 299 295 296 300 301 301 301 300 302 303 303 304 303 301 301 298 297 296 295 293 293 294 293 292 291 292
293 291 291 292 294 294 294 295 299 300 300 302 302 302 303 303 303 303 303 303 302 303 302 300 297 295 300 301 301 301 301 301 303 304 304 304 303 301 299 298 297 296 294 294 294 294 292 292 293
292 291 291 290 292 291 289 289 293 297 300 302 304 304 304 304 304 302 302 302 302 302 302 301 299 297 298 300 301 299 299 299 300 301 301 302 303 302 300 298 298 296 296 294 294 294 293 291 292
288 295 294 291 289 284 289 280 288 293 296 299 300 301 303 303 305 305 303 302 302 303 304 303 301 298 297 299 299 298 294 295 294 297 299 300 302 302 301 300 298 297 296 295 294 296 294 293 291
291 296 294 292 289 285 284 280 285 290 291 294 296 299 300 301 304 305 304 304 304 304 303 304 302 300 298 297 297 296 292 293 294 295 297 298 299 301 301 300 298 297 297 295 295 294 294 294 292
296 293 292 290 288 279 285 283 283 287 290 291 292 292 294 293 293 295 303 306 305 305 304 303 302 301 299 297 295 294 293 293 293 293 294 295 296 298 299 300 299 298 297 296 295 295 294 293 293
294 289 281 277 277 278 282 282 286 289 289 289 290 292 292 291 292 293 293 298 304 304 304 304 303 301 300 297 296 295 294 294 294 294 293 293 294 295 296 297 298 299 298 298 297 296 295 293 292
290 289 282 274 276 277 280 277 285 288 290 290 290 292 293 292 295 294 294 296 297 303 303 303 302 301 301 298 297 296 296 295 295 295 294 294 294 294 296 296 297 297 299 298 298 296 295 294 291
288 285 290 281 274 277 280 283 288 289 289 290 291 293 292 293 294 295 295 296 297 298 302 303 302 301 300 299 297 297 296 296 296 296 295 294 295 296 295 295 295 296 296 297 297 296 294 294 292
289 291 283 282 271 273 277 279 282 285 286 289 289 290 291 293 294 295 296 296 297 298 299 301 301 300 300 299 298 298 297 297 296 296 295 295 295 295 294 294 294 294 295 294 294 294 294 293 293
284 285 286 285 283 278 276 279 284 288 288 288 290 292 291 291 292 293 296 297 297 298 298 298 299 299 299 299 298 297 297 297 297 296 296 295 295 295 294 293 293 293 293 293 292 292 292 293 293
286 287 288 281 278 279 279 280 287 290 290 291 291 292 291 292 291 292 294 296 296 296 296 297 297 297 298 298 297 297 297 297 296 295 295 295 295 295 294 294 293 293 292 292 292 291 293 292 291

GFSSGP_sfc_thetae_339.txt.gz
Theta_e
322 315 315 315 300 298 292 296 298 304 303 306 309 306 303 304 304 300 311 316 322 323 329 333 337 339 338 336 335 333 331 331 331 332 331 329 328 328 326 326 326 326 325 325 325 324 324 323 321
316 314 310 306 295 291 292 298 297 302 306 307 307 307 305 301 309 307 309 320 321 323 327 331 337 338 338 336 334 331 330 329 330 331 332 328 328 326 326 326 325 325 324 324 324 323 322 321 321
316 314 303 300 295 292 293 298 302 304 307 307 304 304 304 302 307 307 313 317 318 325 329 333 337 338 337 334 332 331 330 330 330 329 330 327 327 326 325 325 324 324 324 323 323 322 321 320 320
307 307 304 295 294 297 298 300 304 302 305 306 303 299 302 308 309 311 315 315 321 326 330 334 337 338 336 334 332 330 330 329 329 328 327 325 326 324 324 323 323 323 322 322 321 320 319 319 318
305 301 295 293 294 295 302 307 306 304 303 303 302 298 301 308 312 313 315 317 322 324 327 331 336 336 335 332 331 329 328 328 327 327 326 325 324 324 323 322 322 321 320 320 319 318 317 317 317
299 298 291 290 294 297 303 307 306 305 305 303 300 298 300 309 310 312 314 315 323 323 324 326 329 332 333 332 330 329 328 326 325 326 324 323 323 322 321 321 320 320 319 318 318 316 315 314 314
296 294 290 291 295 298 304 307 304 304 303 303 303 297 300 306 310 311 313 314 321 321 319 319 327 328 328 329 328 328 327 326 325 324 323 322 321 320 319 318 318 318 318 316 315 314 312 311 311
300 296 292 292 293 297 306 305 307 305 301 304 304 297 296 306 311 311 312 312 315 317 317 317 323 325 324 324 325 325 326 325 323 322 320 319 320 318 317 317 316 316 315 314 312 309 308 307 306
302 293 292 295 296 299 306 304 305 305 302 301 302 301 305 311 311 308 308 308 310 313 313 315 318 321 321 322 319 322 322 321 320 317 317 315 311 310 310 314 314 314 313 311 308 306 304 303 302
297 292 294 299 300 304 308 305 304 302 300 299 300 306 310 310 309 307 306 306 307 307 310 314 316 316 317 319 316 313 315 310 309 309 309 307 306 307 308 310 311 309 307 305 303 301 301 295 288
298 293 297 300 306 307 307 305 303 301 298 300 299 303 306 307 306 306 305 305 306 307 309 313 316 314 315 317 314 310 308 307 307 306 306 304 305 303 301 300 298 296 299 292 292 291 290 289 288
293 298 300 302 305 306 305 305 301 301 301 304 304 306 306 305 305 305 305 305 306 306 307 312 314 313 311 316 312 310 308 306 305 305 305 302 301 301 300 297 295 293 291 289 289 289 289 288 289
295 296 299 300 305 304 306 303 302 302 301 303 305 306 305 305 305 306 306 306 307 306 306 309 312 311 312 311 310 312 308 307 305 305 305 303 301 299 298 296 294 290 290 289 289 289 289 288 289
298 298 298 300 302 304 303 302 303 303 301 302 304 304 305 305 305 304 304 305 306 308 306 306 311 312 313 311 309 311 308 305 304 304 304 303 301 298 296 294 292 289 290 290 289 289 289 289 289
298 293 295 297 302 301 303 299 300 303 302 301 302 303 304 305 306 305 305 305 305 307 307 305 308 311 312 314 310 309 307 305 300 302 303 301 300 298 295 293 290 289 290 290 290 290 290 289 290
294 291 288 296 300 302 301 293 302 301 300 299 300 301 304 305 306 306 304 305 303 303 305 304 304 304 306 309 309 308 306 303 299 299 300 300 298 297 295 293 291 290 290 290 290 289 289 289 289
290 283 288 292 298 300 298 295 301 302 301 299 298 300 302 304 305 304 304 304 302 301 301 300 297 297 299 303 307 306 305 303 300 297 297 298 298 296 293 292 291 291 290 290 290 290 289 288 288
284 285 287 289 294 297 295 295 299 300 299 300 299 299 300 302 304 306 304 304 304 301 300 297 295 294 295 298 302 304 303 302 302 300 296 298 297 297 294 293 293 292 290 290 290 290 290 289 289
290 288 288 290 295 296 294 295 297 300 297 298 299 298 300 301 304 306 304 303 303 300 298 296 294 294 296 296 299 300 301 300 301 301 300 298 298 297 295 294 294 292 291 291 291 291 290 289 289
290 286 287 291 292 294 292 293 297 297 298 300 301 299 300 300 299 303 302 302 302 301 299 296 295 295 296 299 299 299 299 299 301 302 301 301 299 298 297 295 294 293 292 291 291 291 290 290 291
289 287 288 288 289 289 287 287 290 294 297 299 301 303 301 301 300 302 301 301 301 301 299 297 295 295 298 298 300 298 299 297 299 300 300 301 300 299 298 296 296 294 293 292 291 291 291 290 290
286 291 292 290 287 283 288 279 285 290 293 296 300 299 301 301 301 302 302 301 300 302 301 299 296 294 297 299 301 301 299 299 297 300 299 300 301 300 299 298 296 295 294 293 292 293 291 291 289
288 293 292 290 286 284 281 279 283 287 289 292 297 299 301 300 302 301 302 302 302 303 301 299 297 295 296 299 301 299 293 294 293 295 297 298 299 300 299 298 296 295 295 294 293 293 292 292 290
294 292 290 288 286 279 283 280 280 285 289 290 293 294 298 295 298 302 302 303 302 302 301 300 297 296 295 297 298 297 297 291 292 292 294 294 296 297 298 298 297 296 295 294 294 293 292 292 291
291 288 279 276 277 277 280 279 285 288 289 288 289 290 291 292 292 293 299 300 300 300 301 301 299 297 296 295 295 296 294 292 292 292 293 293 293 294 297 297 296 297 297 296 295 293 293 292 291
287 288 279 273 274 276 279 277 284 289 289 289 290 290 291 292 293 293 294 297 299 301 301 301 300 299 297 295 294 293 293 294 293 293 292 294 294 294 295 297 296 297 297 297 296 295 294 292 291
286 285 288 280 272 276 279 281 287 288 287 288 289 290 290 292 293 294 294 295 295 300 300 301 300 299 298 296 294 294 294 294 294 294 294 293 293 294 294 295 295 295 297 297 296 296 295 293 292
289 290 283 280 270 271 276 278 281 285 286 287 288 288 290 292 293 293 294 295 295 296 300 300 300 299 298 297 296 296 295 295 294 294 294 294 294 294 294 293 294 294 295 295 295 296 294 293 293
283 285 285 284 280 276 275 278 285 286 288 286 287 289 289 290 291 293 294 294 295 296 297 298 298 298 297 297 296 295 295 295 295 295 294 294 294 294 293 293 293 293 293 293 293 294 293 292 293
283 285 288 281 278 277 279 280 286 287 289 288 289 290 289 289 290 292 294 294 294 294 295 295 296 297 297 297 296 296 296 295 295 294 294 294 294 294 294 293 292 292 292 292 292 291 292 291 291

GFSSGP_sfc_thetae_345.txt.gz
Theta_e
319 313 309 310 298 297 295 292 294 298 302 305 306 307 304 303 302 298 310 318 323 325 331 334 338 338 335 333 332 331 334 331 331 330 329 327 328 327 327 326 326 325 326 328 324 325 324 324 321
311 312 309 305 292 286 290 296 294 298 305 305 303 305 303 302 306 307 312 320 325 328 330 331 337 338 335 333 332 331 335 331 329 329 330 328 327 326 326 326 325 325 325 325 324 324 324 323 322
308 309 299 298 292 289 289 295 298 303 304 304 300 303 302 302 305 310 313 321 324 325 327 333 337 338 337 334 332 331 331 329 328 329 328 327 326 326 325 325 324 324 324 324 323 323 322 322 321
303 302 299 293 291 294 293 296 302 301 302 303 302 300 302 307 306 309 318 320 321 323 328 334 338 338 337 335 331 330 331 332 329 327 327 326 326 325 325 324 324 323 323 323 322 323 321 319 321
301 297 291 289 290 291 295 300 303 302 302 300 300 298 301 306 310 315 318 321 321 323 328 332 336 337 336 333 331 331 328 331 328 328 326 325 324 324 323 323 322 322 321 321 321 321 319 318 319
295 294 287 286 289 292 295 300 303 302 304 299 299 300 301 306 311 312 320 320 323 326 328 331 331 332 333 333 332 331 329 328 326 326 325 325 324 323 322 322 321 321 320 319 318 318 319 317 318
293 290 286 287 289 292 296 303 302 300 300 300 303 298 299 304 310 314 318 319 322 323 329 330 330 329 329 330 330 330 328 328 326 326 324 323 323 322 321 320 320 319 318 317 316 316 316 314 315
295 292 287 288 288 290 297 301 304 303 299 301 302 298 297 304 309 314 317 317 318 320 326 327 327 327 326 325 326 327 326 324 326 323 323 320 322 321 321 320 319 318 316 315 313 312 312 311 311
298 290 287 289 290 292 299 301 302 303 300 298 300 300 302 310 310 313 314 314 313 317 322 326 324 323 323 323 321 322 323 323 323 321 319 314 309 309 309 315 317 316 314 312 309 308 307 306 306
294 289 290 295 295 296 301 302 302 300 298 297 299 302 306 308 309 310 312 313 313 312 318 323 322 321 321 321 315 314 317 317 315 313 311 308 306 306 308 311 316 314 311 308 306 304 302 293 287
293 291 293 296 298 300 299 301 303 299 296 300 299 301 306 306 307 308 312 313 313 313 317 320 320 320 318 315 311 309 308 307 308 309 305 305 304 304 302 300 299 298 297 291 293 290 287 287 286
290 294 296 297 298 297 298 301 300 300 302 302 302 304 306 305 306 307 308 311 310 309 312 318 317 316 314 314 311 307 306 305 304 304 304 302 301 299 298 296 295 293 289 287 287 286 286 286 287
290 293 296 297 298 297 301 301 300 300 303 301 304 305 305 305 307 308 308 310 310 309 311 316 315 313 312 312 308 306 305 304 304 303 303 302 300 298 297 294 291 290 288 286 286 286 286 286 286
291 293 295 296 296 297 299 298 301 303 300 301 303 303 305 305 306 306 306 306 307 309 310 315 313 313 311 310 309 307 305 304 302 302 302 301 300 298 297 294 292 289 287 287 287 286 286 286 287
292 288 290 291 293 294 299 295 297 301 299 300 301 302 303 305 306 305 307 306 308 308 309 313 313 312 311 309 309 307 306 305 302 302 301 301 300 298 297 294 292 290 287 287 287 287 287 287 287
289 287 284 289 293 296 298 289 298 301 298 298 299 299 302 303 305 306 307 308 308 307 307 311 314 311 310 309 309 307 306 304 303 302 301 301 300 298 295 294 292 290 287 287 287 286 286 286 286
285 280 283 287 294 294 296 292 298 299 297 299 297 299 301 302 303 305 306 307 307 307 306 309 311 310 309 308 308 306 305 304 303 301 301 300 299 298 295 293 292 289 287 287 287 286 286 285 286
280 281 284 284 289 293 292 294 296 296 295 298 297 297 299 301 303 305 305 306 306 307 306 307 310 310 309 307 305 303 301 301 299 301 301 300 298 296 294 293 292 289 287 286 286 286 286 286 286
284 284 283 285 290 289 289 293 297 298 294 294 295 296 299 301 305 305 305 305 305 306 305 305 307 308 308 303 305 304 305 300 297 296 300 299 298 295 293 292 291 289 287 287 287 287 286 286 286
285 283 283 286 289 290 288 289 292 294 296 296 297 296 298 301 301 303 304 303 303 303 305 305 304 306 307 308 307 304 299 298 300 298 296 297 297 296 293 291 290 289 288 287 287 287 287 287 287
284 284 283 284 286 287 286 286 288 292 296 297 298 299 299 300 300 302 303 302 303 302 303 304 303 302 306 306 300 298 298 297 297 297 297 296 296 295 295 292 291 290 289 288 288 287 287 287 287
279 286 287 285 282 278 285 279 285 288 292 293 298 298 300 300 302 302 303 302 302 302 302 303 303 301 302 299 303 304 304 304 300 301 299 298 296 295 295 294 293 292 291 290 289 290 288 288 286
281 287 286 285 282 280 281 279 283 284 286 290 293 296 300 302 302 302 302 304 303 303 301 301 301 299 299 297 302 301 302 301 296 297 297 297 297 297 295 295 293 293 292 291 290 290 289 288 288
287 285 285 283 282 276 282 281 281 284 286 287 292 292 296 299 301 303 303 305 303 303 300 299 296 295 296 296 297 297 298 294 294 294 297 296 296 297 296 296 295 294 294 292 292 291 290 289 289
286 282 275 274 274 276 279 280 285 287 288 289 290 290 291 295 299 300 300 302 302 301 300 298 296 294 294 295 295 296 296 295 296 295 296 293 294 293 296 296 295 295 294 294 293 292 291 290 289
283 283 276 270 272 275 279 277 283 289 294 294 290 289 289 293 297 298 299 301 301 301 300 299 296 295 294 295 295 296 296 296 296 295 294 295 295 295 295 296 296 295 295 294 293 292 292 290 289
281 280 286 278 268 274 276 279 284 287 287 288 287 287 289 288 290 295 296 298 299 299 299 299 296 296 294 294 295 295 296 296 296 294 294 294 293 293 294 294 294 294 294 294 293 294 292 291 290
285 286 280 279 267 269 275 276 279 282 286 287 285 286 288 288 290 292 292 294 296 297 299 299 297 296 295 294 295 296 295 296 295 293 292 291 292 292 292 292 292 293 293 293 293 293 292 291 292
281 281 282 282 278 275 272 275 281 285 285 287 287 288 287 290 291 292 292 293 293 296 296 297 297 296 294 294 293 294 294 294 293 293 292 292 291 292 291 291 291 292 292 292 291 291 292 291 292
281 282 284 279 277 277 277 276 283 284 285 287 286 288 288 289 290 291 292 293 294 295 296 296 296 296 296 295 293 292 292 292 291 291 292 292 292 292 292 292 291 291 291 291 290 290 291 290 290